Regional Weather Roundup
Issued by NWS Albany, NY

Home | Current Version | Previous Version | Text Only | Print | Product List | Glossary On
Versions: 1 2 3 4 5 6 7 8 9 10 11 12 13 14 15 16 17 18 19 20 21 22 23 24 25 26 27 28 29 30 31 32 33 34 35 36 37 38 39 40 41 42 43 44 45 46 47 48 49 50
577
ASUS41 KALY 271010
RWRALY

NEW YORK STATE HOURLY WEATHER ROUNDUP
NATIONAL WEATHER SERVICE ALBANY NY
600 AM EDT MON MAR 27 2017

NOTE: "FAIR" INDICATES FEW OR NO CLOUDS BELOW 12,000 FEET WITH NO
SIGNIFICANT WEATHER AND/OR NO OBSTRUCTIONS TO VISIBILITY.

NYZ032-033-038>043-046>054-057>066-NYZ062>081-082-084-271100-
EAST


CITY           SKY/WX    TMP DP  RH WIND       PRES   REMARKS
ALBANY         LGT RAIN  36  32  85 S8G17     30.12F WCI  30
GLENS FALLS    MIX PCPN  33  31  92 CALM      30.12F FOG
POUGHKEEPSIE   MIX PCPN  34  34 100 CALM      30.15F
NEWBURGH       DRIZZLE   36  36 100 SE9       30.15F FOG     WCI  29
MONTGOMERY     LGT RAIN  35  34  96 N5        30.13F WCI  31
WHITE PLAINS   DRZL/FOG  37  35  92 E10       30.14F VSB 3/4 WCI  30
ISLIP          FOG       41  41 100 E8        30.16F VSB 1/4
NEW YORK CITY  DRIZZLE   40  37  89 NE10      30.16F FOG     WCI  33
CENTRAL PARK   CLOUDY    38  38 100 E6        30.18F FOG     WCI  33
$$

NYZ005>009-017-018-044>046-055-056-271100-
CENTRAL


CITY           SKY/WX    TMP DP  RH WIND       PRES   REMARKS
FULTON         LGT RAIN  38  36  92 VRB3      29.98S
SYRACUSE       LGT RAIN  38  37  97 E5        29.99S WCI  34
ROME           CLOUDY    35  35 100 E7        30.06F WCI  29
ELMIRA         CLOUDY    41  38  89 SE5       29.99F
BINGHAMTON     CLOUDY    35  35 100 SE9       30.00F FOG     WCI  28
MONTICELLO     CLOUDY    34  32  93 E5        30.10R WCI  30
$$

NYZ026>034-041>043-087-271100-
NORTH


CITY           SKY/WX    TMP DP  RH WIND       PRES   REMARKS
WATERTOWN      CLOUDY    42  40  92 S5        29.96F
FORT DRUM      NOT AVBL
MASSENA        CLOUDY    34  32  92 NE7       30.01F WCI  28
SARANAC LAKE   CLOUDY    36  36 100 W3        29.96F
PLATTSBURGH    LGT RAIN  35  32  88 SE17G23   30.05F WCI  25
$$

NYZ001>004-010>016-019>021-085-271100-
WEST


CITY           SKY/WX    TMP DP  RH WIND       PRES   REMARKS
NIAGARA FALLS  CLOUDY    50  44  80 S9        29.87S
BUFFALO        CLOUDY    51  44  77 S13       29.88S
DUNKIRK        CLOUDY    50  45  83 S13       29.89R
JAMESTOWN      CLOUDY    45  41  87 S7        29.91S
WELLSVILLE     CLOUDY    42  39  89 S7        29.94F
ROCHESTER      DRIZZLE   47  42  83 SW8       29.91S
PENN YAN       RAIN      42  37  82 S10       29.96F
$$

             KEY
       WCI = WIND CHILL INDEX
       VSB = VISIBILITY
       HX  = HEAT INDEX
$$




USA.gov is the U.S. government's official web portal to all federal, state and local government web resources and services.